Regional Weather Roundup
Issued by NWS

Home | Current Version | Previous Version | Text Only | Print | Product List | Glossary On
Versions: 1 2 3 4 5 6 7 8 9 10 11 12 13 14 15 16 17 18 19 20 21 22 23 24 25 26 27 28 29 30 31 32 33 34 35 36 37 38 39 40 41 42 43 44 45 46 47 48 49 50
000
ASUS44 KBMX 271310
RWRAL

ALABAMA REGIONAL WEATHER ROUNDUP
NATIONAL WEATHER SERVICE BIRMINGHAM AL
800 AM CDT MON APR 27 2015

NOTE: "FAIR" INDICATES FEW OR NO CLOUDS BELOW 12,000 FEET
WITH NO SIGNIFICANT WEATHER AND/OR OBSTRUCTIONS TO VISIBILITY.

THE REMARK "TC" DENOTES TEMPERATURE IN DEGREES CELSIUS.

ALZ001>011-014-016>018-020-271400-
NORTH ALABAMA

CITY           SKY/WX    TMP DP  RH WIND       PRES   REMARKS
MUSCLE SHOALS  MOSUNNY   54  43  66 NE7       29.99R
HUNTSVILLE     MOSUNNY   54  47  77 N8        29.96R
DECATUR        SUNNY     51  47  86 N9        29.97R
HALEYVILLE       N/A     50  46  85 CALM      29.99R
GADSDEN        MOSUNNY   52  45  76 N8        29.93R
$$

ALZ012-013-022-023-030>036-040>044-271400-
WEST CENTRAL ALABAMA

CITY           SKY/WX    TMP DP  RH WIND       PRES   REMARKS
TUSCALOOSA     PTSUNNY   57  49  74 N6        29.93R
$$

ALZ015-024>027-033>036-040>044-271400-
CENTRAL ALABAMA

CITY           SKY/WX    TMP DP  RH WIND       PRES   REMARKS
BIRMINGHAM     PTSUNNY   55  48  77 N7        29.93S
MONTGOMERY     PTSUNNY   60  50  69 NE6       29.89R
SHELBY CO ARPT PTSUNNY   58  47  66 VRB5      29.91R
MAXWELL AFB    PTSUNNY   58  50  73 N9        29.89R
GREENVILLE     FAIR      60  53  77 NE8       29.85R
$$

ALZ019-021-028-029-037-038-045>048-271400-
EAST CENTRAL ALABAMA

CITY           SKY/WX    TMP DP  RH WIND       PRES   REMARKS
ANNISTON       MOSUNNY   55  46  71 N6        29.92R
ALEXANDER CITY MOSUNNY   58  46  65 NE5       29.89R
AUBURN         PTSUNNY   54  45  71 NE7       29.88
$$

ALZ051>064-271400-
SOUTHWEST ALABAMA

CITY           SKY/WX    TMP DP  RH WIND       PRES   REMARKS
MOBILE         CLOUDY    65  61  87 NE8       29.82R
BROOKLEY FIELD CLOUDY    68  61  78 NE9       29.83R
EVERGREEN      CLOUDY    61  56  83 NE8       29.86R
$$

ALZ049-050-065>069-271400-
SOUTHEAST ALABAMA

CITY           SKY/WX    TMP DP  RH WIND       PRES   REMARKS
DOTHAN         CLOUDY    63  58  83 NE6       29.86F
OZARK          CLOUDY    63  55  74 NE6       29.83S
TROY           CLOUDY    60  53  77 N7        29.87R
EUFAULA        FAIR      61  53  75 VRB5      29.86R
$$



USA.gov is the U.S. government's official web portal to all federal, state and local government web resources and services.